Weather observations for the past three days for
Decatur Airport
Imperial (Metric)
Date Time (cdt) Wind (mph) Vis. (mi.) Weather Sky Cond. Temperature (ºF) Relative Humidity Wind Chill (°F) Heat Index (°F) Pressure Precipitation (in)
Air Dwpt 6 hour altimeter (in) sea level (mb) 1 hr 3 hr 6 hr
Max. Min.
04 00:54 S 5 10.00 Fair CLR 79 69.1 90 75.9 72% 82 29.97 1014.0
03 23:54 S 3 10.00 Fair CLR 79 70 74% 82 29.97 1014.0
03 22:54 S 3 10.00 Fair CLR 80.1 70 71% 83 29.96 1013.7
03 21:54 S 5 10.00 Fair CLR 80.1 70 71% 83 29.96 1013.7
03 20:54 S 6 10.00 Fair CLR 82.9 71.1 67% 88 29.94 1013.2
03 19:54 S 7 10.00 Fair CLR 84.9 70 61% 89 29.93 1012.8
03 18:54 S 6 10.00 Fair CLR 90 70 97 90 52% 95 29.93 1012.7
03 17:54 SW 8 10.00 Fair CLR 93.9 69.1 44% 99 29.92 1012.6
03 16:54 SW 13 10.00 Fair CLR 96.1 68 40% 101 29.92 1012.4
03 15:54 SW 9 10.00 Fair CLR 97 70 42% 104 29.93 1012.8
03 14:54 SW 10 10.00 Fair CLR 96.1 69.1 41% 102 29.95 1013.4
03 13:54 SW 6 10.00 Fair CLR 96.1 70 43% 103 29.97 1014.0
03 12:54 W 9 10.00 Fair CLR 93.9 70 93.9 75 46% 100 29.99 1014.5
03 11:54 SW 10 10.00 Partly Cloudy SCT100 91 72 54% 99 30 1015.1
03 10:54 SW 9 10.00 Partly Cloudy SCT095 SCT120 89.1 72 57% 96 30 1015.3
03 09:54 SW 13 10.00 Mostly Cloudy FEW085 BKN120 87.1 72 61% 94 30 1015.2
03 08:54 SW 12 10.00 Mostly Cloudy BKN120 82.9 71.1 67% 88 30 1015.2
03 07:54 SW 8 10.00 Fair CLR 79 71.1 77% 82 30 1015.3
03 06:54 S 6 10.00 Fair CLR 75 69.1 80.1 73.9 82% 75 30 1015.1
03 05:54 S 3 10.00 Fair CLR 75.9 69.1 79% 77 29.99 1014.8
03 04:54 SW 6 10.00 Fair CLR 77 69.1 77% 79 29.99 1014.6
03 03:54 S 7 10.00 Fair CLR 77 69.1 77% 79 29.99 1014.6
03 02:54 S 5 10.00 Fair CLR 75.9 69.1 79% 77 29.99 1014.6
03 01:54 SW 6 10.00 Fair CLR 78.1 69.1 74% 80 29.99 1014.7
03 00:54 SW 9 10.00 Fair CLR 80.1 69.1 90 80.1 69% 83 29.99 1014.6
02 23:54 SW 8 10.00 Fair CLR 81 69.1 67% 84 29.98 1014.3
02 22:54 S 7 10.00 Fair CLR 81 69.1 67% 84 29.98 1014.4
02 21:54 SW 7 10.00 Fair CLR 82 69.1 65% 85 29.97 1014.2
02 20:54 S 6 10.00 Fair CLR 84.9 70 61% 89 29.97 1014.1
02 19:54 S 7 10.00 Fair CLR 84.9 71.1 63% 90 29.95 1013.6
02 18:54 SW 6 10.00 Fair CLR 90 72 97 90 56% 97 29.95 1013.6
02 17:54 SW 9 10.00 Fair CLR 95 69.1 43% 101 29.96 1013.7
02 16:54 SW 10 10.00 Fair CLR 96.1 68 40% 101 29.96 1013.7
02 15:54 SW 12 10.00 Fair CLR 97 68 39% 102 29.97 1014.0
02 14:54 S 13 10.00 Fair CLR 97 69.1 40% 103 29.99 1014.6
02 13:54 W 12 G 20 10.00 Fair CLR 97 69.1 40% 103 30 1015.0
02 12:54 W 12 G 20 10.00 Fair CLR 95 70 95 75.9 44% 101 30.01 1015.4
02 11:54 W 13 10.00 Fair CLR 93 70 47% 99 30.03 1016.0
02 10:54 SW 13 10.00 Fair CLR 90 71.1 54% 96 30.03 1016.3
02 09:54 SW 15 10.00 Fair CLR 87.1 70 57% 92 30.03 1016.1
02 08:54 SW 12 10.00 Fair CLR 84 71.1 65% 89 30.03 1016.1
02 07:54 SW 10 10.00 Fair CLR 79 70 74% 82 30.04 1016.4
02 06:54 SW 7 10.00 Fair CLR 75.9 70 78.1 75.9 82% 77 30.03 1016.2
02 05:54 SW 8 10.00 Fair CLR 75.9 70 82% 77 30.02 1015.9
02 04:54 SW 7 10.00 Fair CLR 75.9 69.1 79% 77 30.02 1015.8
02 03:54 S 7 10.00 Fair CLR 75.9 69.1 79% 77 30.01 1015.4
02 02:54 SW 6 10.00 Fair CLR 77 68 74% 79 30.01 1015.2
02 01:54 SW 7 10.00 Fair CLR 77 68 74% 79 30.02 1015.8
02 00:54 SW 7 10.00 Fair CLR 78.1 68 90 78.1 71% 80 30.02 1015.7
01 23:54 SW 8 10.00 Fair CLR 81 68 65% 84 30.01 1015.5
01 22:54 S 5 10.00 Fair CLR 81 69.1 67% 84 30.01 1015.5
01 21:54 S 3 10.00 Fair CLR 82 70 67% 86 30.01 1015.6
01 20:54 S 5 10.00 Fair CLR 82 71.1 69% 86 30 1015.1
01 19:54 S 6 10.00 Fair CLR 84.9 72 65% 91 29.98 1014.6
01 18:54 SE 6 10.00 Fair CLR 90 73.9 96.1 90 59% 99 29.99 1014.7
01 17:54 SW 3 10.00 Fair CLR 95 69.1 43% 101 29.99 1014.8
01 16:54 SW 7 10.00 Fair CLR 96.1 69.1 41% 102 29.99 1014.8
01 15:54 W 7 10.00 Fair CLR 96.1 68 40% 101 29.99 1015.0
01 14:54 W 8 10.00 Fair CLR 96.1 69.1 41% 102 30 1015.3
01 13:54 SW 9 10.00 Fair CLR 93.9 70 46% 100 30.02 1015.9
01 12:54 SW 8 10.00 Fair CLR 91.9 70 91.9 73.9 49% 98 30.04 1016.4
01 11:54 SW 10 10.00 Fair CLR 91 71.1 52% 98 30.05 1016.7
01 10:54 W 10 10.00 Fair CLR 88 70 55% 93 30.05 1017.0
01 09:54 W 13 10.00 Fair CLR 84.9 69.1 59% 89 30.05 1016.8
01 08:54 SW 13 10.00 Fair CLR 81 69.1 67% 84 30.05 1016.7
01 07:54 SW 9 10.00 Fair CLR 77 69.1 77% 79 30.05 1016.7
01 06:54 SW 10 10.00 Fair CLR 73.9 68 78.1 73.9 82% 30.03 1016.3
01 05:54 SW 10 10.00 Fair CLR 75 68 79% 76 30.02 1015.8
01 04:54 SW 9 10.00 Fair CLR 75.9 69.1 79% 77 30.02 1015.7
01 03:54 SW 9 10.00 Fair CLR 75 68 79% 76 30.01 1015.5
01 02:54 SW 8 10.00 Fair CLR 75.9 68 77% 77 30.01 1015.5
01 01:54 SW 10 10.00 Fair CLR 77 66.9 71% 79 30.01 1015.5
Date Time (cdt) Wind (mph) Vis. (mi.) Weather Sky Cond. Air Dwpt Max. Min. Relative Humidity Wind Chill (°F) Heat Index (°F) altimeter (in) sea level (mb) 1 hr 3 hr 6 hr
6 hour
Temperature (ºF) Pressure Precipitation (in)